Volver al catálogo

STARLINK-3333

ActivoComunicacionesVLEO
NORAD 50805·PAYLOAD·🇺🇸 United States

Lanzado Jan 6, 2022 desde Cape Canaveral Space Force Station

Loading…

Próximos Pases (próximas 24 horas)

TLE

ActualizadoSource: CelesTrak SupGP

Época: Sep 14, 2026, 21:12 UTC

1 50805C 22001C   26257.88381944  .00035303  00000+0  14708-2 0  2572
2 50805  53.1414  24.8748 0002395 297.5548 195.4069 15.23173038    18

Sigue STARLINK-3333 en tiempo real con AllMySat

Download on the App Store